When you browse on this site, cookies collect data to enhance your experience and personalize the content and advertising you see.
Visit our Privacy Policy to learn more. By continuing to use the site, you agree to this use of cookies and data.
  • In France
  • List of Countries
  • For 7 days
  • Water Temperature
  • Satellite Maps
  • Weather Map
  • Weather Widgets
  • user-avatar
    Login

    Hourly Weather Shaki

    Today, 26 June, Wednesday

    Time Temperature Precipitation Wind Pressure Humidity
    00:00 +28°C° 0 mm 2 mps 735 mmHg 29%
    01:00 +28°C° 0 mm 2 mps 735 mmHg 30%
    02:00 +27°C° 0 mm 1 mps 735 mmHg 30%
    03:00 +27°C° 0 mm 1 mps 735 mmHg 29%
    04:00 +28°C° 0 mm 1 mps 735 mmHg 30%
    05:00 +29°C° 0 mm 1 mps 735 mmHg 31%
    06:00 +30°C° 0 mm 1 mps 736 mmHg 32%
    07:00 +31°C° 0 mm 1 mps 735 mmHg 30%
    08:00 +34°C° 0 mm 2 mps 735 mmHg 27%
    09:00 +36°C° 0 mm 2 mps 736 mmHg 25%
    10:00 +37°C° 0 mm 3 mps 736 mmHg 23%
    11:00 +38°C° 0 mm 3 mps 736 mmHg 21%
    12:00 +39°C° 0 mm 3 mps 736 mmHg 20%
    13:00 +40°C° 0 mm 4 mps 735 mmHg 19%
    14:00 +41°C° 0 mm 4 mps 735 mmHg 19%
    15:00 +41°C° 0 mm 4 mps 735 mmHg 18%
    16:00 +40°C° 0 mm 4 mps 735 mmHg 21%
    17:00 +40°C° 0 mm 4 mps 735 mmHg 23%
    18:00 +38°C° 0 mm 4 mps 735 mmHg 25%
    19:00 +36°C° 0 mm 4 mps 735 mmHg 29%
    20:00 +34°C° 0 mm 4 mps 735 mmHg 33%
    21:00 +32°C° 0 mm 4 mps 735 mmHg 37%
    22:00 +30°C° 0 mm 3 mps 735 mmHg 41%
    23:00 +29°C° 0 mm 3 mps 735 mmHg 46%

    Tomorrow, 27 June, Thursday

    Time Temperature Precipitation Wind Pressure Humidity
    00:00 +28°C° 0 mm 3 mps 735 mmHg 50%
    01:00 +27°C° 0 mm 2 mps 734 mmHg 51%
    02:00 +27°C° 0 mm 2 mps 734 mmHg 52%
    03:00 +26°C° 0 mm 2 mps 734 mmHg 53%
    04:00 +27°C° 0 mm 2 mps 734 mmHg 53%
    05:00 +28°C° 0 mm 2 mps 734 mmHg 52%
    06:00 +29°C° 0 mm 2 mps 734 mmHg 51%
    07:00 +30°C° 0 mm 3 mps 734 mmHg 48%
    08:00 +31°C° 0 mm 3 mps 734 mmHg 45%
    09:00 +33°C° 0 mm 4 mps 734 mmHg 42%
    10:00 +34°C° 0 mm 4 mps 734 mmHg 39%
    11:00 +35°C° 0 mm 4 mps 733 mmHg 36%
    12:00 +36°C° 0 mm 4 mps 733 mmHg 34%
    13:00 +36°C° 0.1 mm 4 mps 733 mmHg 33%
    14:00 +36°C° 0.1 mm 4 mps 732 mmHg 33%
    15:00 +37°C° 0.1 mm 4 mps 732 mmHg 32%
    16:00 +36°C° 0 mm 3 mps 731 mmHg 33%
    17:00 +36°C° 0 mm 3 mps 731 mmHg 34%
    18:00 +35°C° 0 mm 3 mps 731 mmHg 36%
    19:00 +34°C° 0 mm 3 mps 731 mmHg 38%
    20:00 +31°C° 0 mm 3 mps 731 mmHg 40%
    21:00 +30°C° 0 mm 3 mps 731 mmHg 42%
    22:00 +29°C° 0 mm 3 mps 731 mmHg 44%
    23:00 +27°C° 0 mm 3 mps 731 mmHg 47%

    Day after tomorrow, 28 June, Friday

    Time Temperature Precipitation Wind Pressure Humidity
    00:00 +26°C° 0 mm 3 mps 730 mmHg 49%
    01:00 +26°C° 0 mm 3 mps 730 mmHg 51%
    02:00 +26°C° 0 mm 2 mps 730 mmHg 52%
    03:00 +25°C° 0 mm 2 mps 730 mmHg 54%
    04:00 +26°C° 0 mm 1 mps 729 mmHg 52%
    05:00 +27°C° 0 mm 1 mps 729 mmHg 51%
    06:00 +27°C° 0 mm 1 mps 729 mmHg 49%
    07:00 +29°C° 0 mm 1 mps 729 mmHg 46%
    08:00 +30°C° 0 mm 2 mps 729 mmHg 43%
    09:00 +31°C° 0 mm 2 mps 729 mmHg 39%
    10:00 +32°C° 0.1 mm 2 mps 728 mmHg 36%
    11:00 +34°C° 0.1 mm 2 mps 728 mmHg 34%
    12:00 +36°C° 0.1 mm 3 mps 727 mmHg 31%
    13:00 +36°C° 0.2 mm 3 mps 727 mmHg 31%
    14:00 +36°C° 0.2 mm 3 mps 726 mmHg 31%
    15:00 +36°C° 0.2 mm 3 mps 726 mmHg 31%
    16:00 +36°C° 0.1 mm 3 mps 726 mmHg 32%
    17:00 +35°C° 0.1 mm 3 mps 726 mmHg 34%
    18:00 +35°C° 0.1 mm 3 mps 725 mmHg 35%
    19:00 +32°C° 0 mm 2 mps 726 mmHg 39%
    20:00 +30°C° 0 mm 2 mps 726 mmHg 42%
    21:00 +29°C° 0 mm 1 mps 726 mmHg 46%
    22:00 +29°C° 0 mm 1 mps 726 mmHg 46%
    23:00 +28°C° 0 mm 1 mps 726 mmHg 46%

    29 June, Saturday

    Time Temperature Precipitation Wind Pressure Humidity
    00:00 +28°C° 0 mm 2 mps 726 mmHg 46%
    01:00 +28°C° 0 mm 1 mps 726 mmHg 48%
    02:00 +27°C° 0 mm 1 mps 726 mmHg 51%
    03:00 +27°C° 0 mm 1 mps 726 mmHg 53%
    04:00 +27°C° 0 mm 1 mps 726 mmHg 53%
    05:00 +28°C° 0 mm 1 mps 726 mmHg 54%
    06:00 +28°C° 0 mm 1 mps 726 mmHg 54%
    07:00 +29°C° 0.2 mm 1 mps 726 mmHg 51%
    08:00 +31°C° 0.2 mm 2 mps 726 mmHg 48%
    09:00 +32°C° 0.2 mm 2 mps 726 mmHg 44%
    10:00 +34°C° 0.3 mm 2 mps 726 mmHg 42%
    11:00 +35°C° 0.3 mm 3 mps 726 mmHg 40%
    12:00 +36°C° 0.3 mm 3 mps 725 mmHg 38%
    13:00 +36°C° 0.6 mm 3 mps 725 mmHg 38%
    14:00 +36°C° 0.6 mm 3 mps 725 mmHg 38%
    15:00 +36°C° 0.6 mm 3 mps 725 mmHg 38%
    16:00 +36°C° 0.5 mm 3 mps 724 mmHg 40%
    17:00 +35°C° 0.5 mm 3 mps 724 mmHg 42%
    18:00 +34°C° 0.5 mm 3 mps 724 mmHg 43%
    19:00 +31°C° 1.6 mm 3 mps 725 mmHg 54%
    20:00 +28°C° 1.6 mm 3 mps 726 mmHg 64%
    21:00 +26°C° 1.6 mm 3 mps 726 mmHg 74%
    22:00 +25°C° 1.1 mm 3 mps 726 mmHg 78%
    23:00 +24°C° 1.1 mm 3 mps 727 mmHg 81%

    30 June, Sunday

    Time Temperature Precipitation Wind Pressure Humidity
    00:00 +24°C° 1.1 mm 3 mps 727 mmHg 85%
    01:00 +22°C° 0.4 mm 3 mps 727 mmHg 84%
    02:00 +22°C° 0.4 mm 3 mps 727 mmHg 84%
    03:00 +22°C° 0.4 mm 3 mps 728 mmHg 83%
    04:00 +22°C° 0.1 mm 3 mps 728 mmHg 81%
    05:00 +22°C° 0.1 mm 3 mps 728 mmHg 79%
    06:00 +22°C° 0.1 mm 3 mps 728 mmHg 77%
    07:00 +24°C° 0.2 mm 3 mps 728 mmHg 74%
    08:00 +25°C° 0.2 mm 2 mps 728 mmHg 71%
    09:00 +25°C° 0.2 mm 2 mps 728 mmHg 68%
    10:00 +27°C° 0.3 mm 2 mps 729 mmHg 64%
    11:00 +28°C° 0.3 mm 2 mps 729 mmHg 60%
    12:00 +29°C° 0.3 mm 3 mps 729 mmHg 56%
    13:00 +29°C° 1.2 mm 3 mps 728 mmHg 57%
    14:00 +29°C° 1.2 mm 4 mps 728 mmHg 58%
    15:00 +29°C° 1.2 mm 4 mps 728 mmHg 59%
    16:00 +28°C° 0.9 mm 4 mps 728 mmHg 62%
    17:00 +27°C° 0.9 mm 3 mps 728 mmHg 64%
    18:00 +27°C° 0.9 mm 3 mps 728 mmHg 67%
    19:00 +25°C° 1.2 mm 3 mps 729 mmHg 73%
    20:00 +24°C° 1.2 mm 3 mps 729 mmHg 79%
    21:00 +21°C° 1.2 mm 2 mps 730 mmHg 86%
    22:00 +21°C° 1.6 mm 2 mps 730 mmHg 87%
    23:00 +21°C° 1.6 mm 2 mps 730 mmHg 89%

    1 July, Monday

    Time Temperature Precipitation Wind Pressure Humidity
    00:00 +21°C° 1.6 mm 1 mps 730 mmHg 91%
    01:00 +20°C° 1.4 mm 2 mps 730 mmHg 91%
    02:00 +19°C° 1.4 mm 3 mps 730 mmHg 91%
    03:00 +19°C° 1.4 mm 3 mps 730 mmHg 90%
    04:00 +19°C° 0.8 mm 3 mps 730 mmHg 89%
    05:00 +19°C° 0.8 mm 3 mps 730 mmHg 89%
    06:00 +19°C° 0.8 mm 3 mps 730 mmHg 88%
    07:00 +19°C° 0.7 mm 3 mps 730 mmHg 85%
    08:00 +19°C° 0.7 mm 3 mps 730 mmHg 82%
    09:00 +19°C° 0.7 mm 3 mps 731 mmHg 79%
    10:00 +19°C° 1.1 mm 3 mps 731 mmHg 80%
    11:00 +19°C° 1.1 mm 2 mps 731 mmHg 81%
    12:00 +20°C° 1.1 mm 1 mps 731 mmHg 82%
    13:00 +20°C° 0.3 mm 1 mps 731 mmHg 77%
    14:00 +21°C° 0.3 mm 1 mps 731 mmHg 73%
    15:00 +21°C° 0.3 mm 2 mps 730 mmHg 68%
    16:00 +21°C° 0 mm 2 mps 731 mmHg 67%
    17:00 +21°C° 0 mm 2 mps 731 mmHg 66%
    18:00 +22°C° 0 mm 3 mps 731 mmHg 65%
    19:00 +21°C° 0 mm 3 mps 731 mmHg 70%
    20:00 +19°C° 0 mm 3 mps 732 mmHg 75%
    21:00 +18°C° 0 mm 3 mps 732 mmHg 79%
    22:00 +18°C° 0 mm 2 mps 732 mmHg 81%
    23:00 +17°C° 0 mm 2 mps 732 mmHg 83%
    Show more